Content
SEND FEEDBACK

Daily
Averages
Monthly
Summary
United States of America

WILMINGTON, NORTH CAROLINA


Home > North America > United States > North Carolina
Elevation: 21 meters     Latitude: 34 16N     Longitude: 077 54W

WEATHER
 
SELECT A DAY
Number of Records: 213,412;   Date Range: 1/1/95 - 11/27/14
 
SHARE

PRINT THIS DATA

[ ← Previous Day ]
WEATHER ALMANAC - 2 JULY, 2014
[ Next Day → ]
[ °F ]   °C
Weather ElementAverageHighLow
Temperature28.8 °C32.8 °C (12:53 pm)25 °C (5:53 am)
Dewpoint23.7 °C25 °C (11:00 pm)21.7 °C (6:53 pm)
Humidity75.2 %94 % (5:53 am)55 % (2:53 pm)
Barometer1015.6 hPa1016.3 hPa (9:50 pm)1014.6 hPa (1:53 am)
Wind Speed13.4 km/h24.1 km/h (1:53 pm)
Wind Gust37 km/h (1:53 pm)
Weather ElementAverage
Visibility16.1 km
Wind DirectionSSW (187.3 °)

Weather ElementTotal
Precipitation---
Cooling Degree Days10.6 (Base 18.3)
Growing Degree Days18.9 (Base 10)
Averaged from 30 records on 2 July, 2014
WEATHER CONDITIONS BREAKOUT
WIND DIRECTION BREAKOUT
WEATHER BY HOUR - 2 JULY, 2014
[ °F ]   °C
Local TimeTemperatureDewpointHumidityBarometerVisibilityWind DirectionWind SpeedGust SpeedPrecipitationEventsConditions
1:53 AM26.1 °C23.3 °C84 %1014.6 hPa16.1 kmSSW (200°)9.3 km/hClear
2:53 AM26.1 °C23.3 °C84 %1014.9 hPa16.1 kmSSW (210°)7.4 km/hClear
3:53 AM25.6 °C23.9 °C90 %1014.9 hPa16.1 kmSSW (210°)7.4 km/hClear
4:53 AM25.6 °C23.9 °C90 %1014.6 hPa16.1 kmSSW (200°)5.6 km/hClear
5:53 AM25 °C23.9 °C94 %1014.9 hPa16.1 kmSouth (190°)7.4 km/hClear
6:53 AM26.1 °C24.4 °C90 %1015.6 hPa16.1 kmSouth (190°)7.4 km/hClear
7:53 AM27.8 °C24.4 °C82 %1015.9 hPa16.1 kmSSW (200°)11.1 km/hPartly Cloudy
8:14 AM28.3 °C24.4 °C79 %1015.9 hPa16.1 kmSouth (190°)14.8 km/hMostly Cloudy
8:25 AM28.3 °C24.4 °C79 %1015.9 hPa16.1 kmSSW (200°)16.7 km/hOvercast
8:46 AM28.3 °C24.4 °C79 %1015.9 hPa16.1 kmSSW (200°)16.7 km/hScattered Clouds
8:53 AM29.4 °C24.4 °C74 %1015.9 hPa16.1 kmSouth (190°)13 km/hScattered Clouds
9:53 AM30.6 °C23.3 °C65 %1015.9 hPa16.1 kmSW (220°)16.7 km/hScattered Clouds
10:53 AM31.7 °C22.8 °C59 %1015.6 hPa16.1 kmSSW (210°)14.8 km/hClear
11:53 AM32.2 °C23.3 °C59 %1015.6 hPa16.1 kmSouth (190°)20.4 km/h33.3 km/hPartly Cloudy
12:53 PM32.8 °C23.3 °C57 %1015.9 hPa16.1 kmSouth (190°)18.5 km/h31.5 km/hPartly Cloudy
1:53 PM32.2 °C22.8 °C57 %1015.9 hPa16.1 kmSSW (210°)24.1 km/h37 km/hMostly Cloudy
2:53 PM32.8 °C22.8 °C55 %1015.9 hPa16.1 kmSouth (180°)18.5 km/hScattered Clouds
3:53 PM31.7 °C22.8 °C59 %1015.6 hPa16.1 kmSSW (200°)22.2 km/h33.3 km/hScattered Clouds
4:53 PM32 °C22 °C55 %1015.2 hPa16.1 kmSSW (200°)18.5 km/hPartly Cloudy
5:53 PM31.7 °C22.2 °C57 %1015.2 hPa16.1 kmSSW (210°)14.8 km/hPartly Cloudy
6:53 PM31.1 °C21.7 °C57 %1015.2 hPa16.1 kmSSW (200°)16.7 km/hClear
7:53 PM29.4 °C23.9 °C72 %1015.6 hPa16.1 kmSSE (160°)20.4 km/hClear
8:53 PM27.8 °C24.4 °C82 %1015.6 hPa16.1 kmSSE (160°)13 km/hPartly Cloudy
9:50 PM28 °C24 °C79 %1016.3 hPa16.1 kmSSE (160°)11.1 km/hMostly Cloudy
9:53 PM27.8 °C24.4 °C82 %1016.3 hPa16.1 kmSouth (170°)13 km/hOvercast
10:33 PM27.2 °C24.4 °C85 %1016.3 hPa16.1 kmSSE (160°)9.3 km/hScattered Clouds
10:53 PM26.7 °C24.4 °C87 %1016.3 hPa16.1 kmSSE (150°)5.6 km/hScattered Clouds
11:00 PM27.2 °C25 °C88 %1016.3 hPa16.1 kmSSE (160°)9.3 km/hMostly Cloudy
11:22 PM27.2 °C25 °C88 %1016.3 hPa16.1 kmSSE (150°)9.3 km/hScattered Clouds
11:53 PM26.7 °C24.4 °C87 %1016.3 hPa16.1 kmSSE (160°)7.4 km/hClear
Hourly data recorded from KILM, located 0 kilometers away from Wilmington, North Carolina







STORIES FROM OUR PARTNERS